P/2006 D1 ( Hill )

Japanese version
Home page
Updated on October 14, 2018

---------------------------------------------------------------------

* Profile

Discovery Date February 22, 2006
Magnitude 20.3 mag
Discoverer Rik Hill (Catalina Sky Surve)

* Orbital Elements

Epoch 2005 Nov. 6.0 TT = JDT 2453680.5
T 2005 Oct. 25.99332 TT                                 MPCW
q   1.8921961            (2000.0)            P               Q
n   0.07527703     Peri.  118.19442     -0.48636834     -0.87373966
a   5.5551321      Node     0.95199     +0.65886999     -0.37049614
e   0.6593787      Incl.   17.45997     +0.57387819     -0.31513747
P  13.09
From 82 observations 2005 Dec. 5-2018 Oct. 6, mean residual 0".5.

* Magnitudes Graph

        m1 = 15.0 + 5 log d + 10.0 log r

---------------------------------------------------------------------

The orbital elements are published on M.P.E.C. 2018-T62.
The magnitudes graphs are made with Comet for Windows.

---------------------------------------------------------------------

Copyright(C) Seiichi Yoshida (comet@aerith.net). All rights reserved.